| time (UTC) | temp C | wind direction | speed KPH | gust KPH | rain 1hr cm | rain 24hr cm | rain mn cm | humidity % | barometer mb |
| 20260503021403 | 12 | 71 | 6.4 | 14.5 | 0.00 | 0.00 | 0.00 | 73 | 1016.5 |
| 20260503020903 | 12 | 61 | 8.0 | 14.5 | 0.00 | 0.00 | 0.00 | 72 | 1016.5 |
| 20260503020400 | 12 | 53 | 6.4 | 14.5 | 0.00 | 0.00 | 0.00 | 72 | 1016.6 |
| 20260503015859 | 12 | 56 | 6.4 | 12.9 | 0.00 | 0.00 | 0.00 | 72 | 1016.6 |
| 20260503015359 | 12 | 65 | 6.4 | 12.9 | 0.00 | 0.00 | 0.00 | 73 | 1016.6 |
| 20260503014857 | 12 | 65 | 6.4 | 12.9 | 0.00 | 0.00 | 0.00 | 73 | 1016.7 |
| 20260503014355 | 12 | 66 | 4.8 | 12.9 | 0.00 | 0.00 | 0.00 | 73 | 1016.7 |
| 20260503013855 | 12 | 66 | 4.8 | 11.3 | 0.00 | 0.00 | 0.00 | 74 | 1016.8 |
| 20260503012852 | 12 | 59 | 4.8 | 8.0 | 0.00 | 0.00 | 0.00 | 74 | 1016.8 |
| 20260503012351 | 12 | 52 | 3.2 | 6.4 | 0.00 | 0.00 | 0.00 | 75 | 1016.9 |
| 20260503011850 | 12 | 67 | 3.2 | 8.0 | 0.00 | 0.00 | 0.00 | 75 | 1017.0 |
| 20260503011352 | 12 | 67 | 4.8 | 8.0 | 0.00 | 0.00 | 0.00 | 75 | 1016.9 |
| 20260503010847 | 12 | 64 | 4.8 | 11.3 | 0.00 | 0.00 | 0.00 | 75 | 1017.0 |
| 20260503010357 | 12 | 79 | 4.8 | 11.3 | 0.00 | 0.00 | 0.00 | 75 | 1017.2 |
| 20260503005841 | 12 | 63 | 6.4 | 8.0 | 0.00 | 0.00 | 0.00 | 76 | 1017.3 |
| 20260503005340 | 12 | 67 | 3.2 | 8.0 | 0.00 | 0.00 | 0.00 | 75 | 1017.3 |
| 20260503004838 | 12 | 66 | 4.8 | 8.0 | 0.00 | 0.00 | 0.00 | 76 | 1017.4 |
| 20260503004336 | 12 | 66 | 3.2 | 8.0 | 0.00 | 0.00 | 0.00 | 76 | 1017.4 |
| 20260503003836 | 12 | 70 | 6.4 | 8.0 | 0.00 | 0.00 | 0.00 | 77 | 1017.3 |
| 20260503003331 | 11 | 64 | 4.8 | 6.4 | 0.00 | 0.00 | 0.00 | 77 | 1017.4 |
| 20260503002825 | 11 | 49 | 3.2 | 6.4 | 0.00 | 0.00 | 0.00 | 77 | 1017.4 |
| 20260503002321 | 11 | 63 | 3.2 | 6.4 | 0.00 | 0.00 | 0.00 | 76 | 1017.4 |
| 20260503001821 | 12 | 70 | 4.8 | 6.4 | 0.00 | 0.00 | 0.00 | 75 | 1017.4 |
| 20260503000814 | 12 | 55 | 4.8 | 6.4 | 0.00 | 0.00 | 0.00 | 75 | 1017.4 |
| 20260502235805 | 12 | 65 | 3.2 | 4.8 | 0.00 | 0.00 | 0.00 | 75 | 1017.5 |
| 20260502235309 | 12 | 61 | 3.2 | 4.8 | 0.00 | 0.00 | 0.00 | 74 | 1017.5 |
| 20260502234802 | 12 | 61 | 3.2 | 6.4 | 0.00 | 0.00 | 0.00 | 74 | 1017.5 |
| 20260502233804 | 12 | 81 | 4.8 | 9.7 | 0.00 | 0.00 | 0.00 | 73 | 1017.4 |
| 20260502233259 | 12 | 265 | 1.6 | 9.7 | 0.00 | 0.00 | 0.00 | 73 | 1017.6 |
| 20260502232257 | 13 | 44 | 1.6 | 3.2 | 0.00 | 0.00 | 0.00 | 73 | 1017.5 |
| 20260502231746 | 13 | 42 | 1.6 | 6.4 | 0.00 | 0.00 | 0.00 | 72 | 1017.5 |
| 20260502231234 | 13 | 42 | 1.6 | 8.0 | 0.00 | 0.00 | 0.00 | 71 | 1017.5 |
| 20260502230734 | 13 | 169 | 4.8 | 8.0 | 0.00 | 0.00 | 0.00 | 71 | 1017.4 |
| 20260502230234 | 13 | 61 | 3.2 | 9.7 | 0.00 | 0.00 | 0.00 | 70 | 1017.3 |
| 20260502225726 | 13 | 70 | 4.8 | 9.7 | 0.00 | 0.00 | 0.00 | 70 | 1017.3 |
| 20260502225224 | 13 | 61 | 4.8 | 8.0 | 0.00 | 0.00 | 0.00 | 69 | 1017.4 |
| 20260502224722 | 13 | 72 | 4.8 | 8.0 | 0.00 | 0.00 | 0.00 | 68 | 1017.3 |
| 20260502224220 | 14 | 37 | 0.0 | 6.4 | 0.00 | 0.00 | 0.00 | 67 | 1017.4 |
| 20260502223722 | 14 | 44 | 3.2 | 6.4 | 0.00 | 0.00 | 0.00 | 66 | 1017.4 |
| 20260502223217 | 14 | 210 | 0.0 | 4.8 | 0.00 | 0.00 | 0.00 | 66 | 1017.4 |
| 20260502222717 | 15 | 210 | 3.2 | 8.0 | 0.00 | 0.00 | 0.00 | 65 | 1017.3 |
| 20260502221714 | 15 | 69 | 1.6 | 11.3 | 0.00 | 0.00 | 0.00 | 65 | 1017.2 |
| 20260502220712 | 15 | 64 | 6.4 | 11.3 | 0.00 | 0.00 | 0.00 | 64 | 1016.9 |
| 20260502220215 | 15 | 51 | 3.2 | 11.3 | 0.00 | 0.00 | 0.00 | 64 | 1016.9 |
| 20260502215707 | 14 | 52 | 8.0 | 11.3 | 0.00 | 0.00 | 0.00 | 64 | 1016.9 |
| 20260502214704 | 14 | 40 | 4.8 | 8.0 | 0.00 | 0.00 | 0.00 | 65 | 1016.9 |
| 20260502214201 | 14 | 40 | 3.2 | 4.8 | 0.00 | 0.00 | 0.00 | 65 | 1016.9 |
| 20260502213703 | 14 | 53 | 1.6 | 6.4 | 0.00 | 0.00 | 0.00 | 64 | 1016.9 |
| 20260502213202 | 15 | 54 | 1.6 | 11.3 | 0.00 | 0.00 | 0.00 | 63 | 1016.8 |
| 20260502212704 | 15 | 24 | 3.2 | 14.5 | 0.00 | 0.00 | 0.00 | 62 | 1016.8 |
| 20260502212152 | 15 | 59 | 9.7 | 14.5 | 0.00 | 0.00 | 0.00 | 62 | 1016.8 |
| 20260502211648 | 15 | 48 | 9.7 | 14.5 | 0.00 | 0.00 | 0.00 | 61 | 1016.8 |
| 20260502211145 | 15 | 61 | 6.4 | 11.3 | 0.00 | 0.00 | 0.00 | 61 | 1016.9 |
| 20260502210643 | 15 | 61 | 8.0 | 11.3 | 0.00 | 0.00 | 0.00 | 60 | 1016.9 |
| 20260502205641 | 15 | 57 | 6.4 | 11.3 | 0.00 | 0.00 | 0.00 | 60 | 1016.9 |
| 20260502204639 | 15 | 56 | 8.0 | 14.5 | 0.00 | 0.00 | 0.00 | 59 | 1017.0 |
| 20260502204133 | 15 | 59 | 6.4 | 14.5 | 0.00 | 0.00 | 0.00 | 59 | 1017.0 |
| 20260502203629 | 15 | 74 | 4.8 | 14.5 | 0.00 | 0.00 | 0.00 | 59 | 1017.0 |
| 20260502202624 | 15 | 91 | 8.0 | 12.9 | 0.00 | 0.00 | 0.00 | 59 | 1017.2 |
| 20260502201622 | 15 | 58 | 8.0 | 12.9 | 0.00 | 0.00 | 0.00 | 61 | 1017.2 |
| 20260502201120 | 15 | 61 | 3.2 | 8.0 | 0.00 | 0.00 | 0.00 | 62 | 1017.2 |
| 20260502200617 | 15 | 63 | 3.2 | 6.4 | 0.00 | 0.00 | 0.00 | 63 | 1017.3 |
| 20260502200124 | 15 | 61 | 1.6 | 4.8 | 0.00 | 0.00 | 0.00 | 63 | 1017.3 |
| 20260502195607 | 15 | 69 | 1.6 | 6.4 | 0.00 | 0.00 | 0.00 | 64 | 1017.3 |
| 20260502195106 | 15 | 69 | 1.6 | 6.4 | 0.00 | 0.00 | 0.00 | 63 | 1017.3 |
| 20260502194603 | 15 | 69 | 3.2 | 8.0 | 0.00 | 0.00 | 0.00 | 62 | 1017.3 |
| 20260502194056 | 16 | 61 | 4.8 | 8.0 | 0.00 | 0.00 | 0.00 | 61 | 1017.3 |
| 20260502193558 | 16 | 51 | 1.6 | 4.8 | 0.00 | 0.00 | 0.00 | 59 | 1017.2 |
| 20260502193053 | 17 | 88 | 0.0 | 4.8 | 0.00 | 0.00 | 0.00 | 58 | 1017.3 |
| 20260502192550 | 17 | 88 | 1.6 | 4.8 | 0.00 | 0.00 | 0.00 | 56 | 1017.2 |
| 20260502192050 | 17 | 119 | 1.6 | 6.4 | 0.00 | 0.00 | 0.00 | 56 | 1017.2 |
| 20260502191543 | 17 | 107 | 3.2 | 9.7 | 0.00 | 0.00 | 0.00 | 55 | 1017.0 |
| 20260502190543 | 18 | 38 | 4.8 | 11.3 | 0.00 | 0.00 | 0.00 | 53 | 1016.9 |
| 20260502190113 | 18 | 66 | 4.8 | 9.7 | 0.00 | 0.00 | 0.00 | 54 | 1016.8 |
| 20260502185532 | 18 | 58 | 4.8 | 8.0 | 0.00 | 0.00 | 0.00 | 54 | 1016.7 |
| 20260502185033 | 18 | 55 | 3.2 | 8.0 | 0.00 | 0.00 | 0.00 | 53 | 1016.8 |
| 20260502184531 | 18 | 61 | 3.2 | 8.0 | 0.00 | 0.00 | 0.00 | 52 | 1016.7 |
| 20260502184033 | 19 | 54 | 4.8 | 11.3 | 0.00 | 0.00 | 0.00 | 52 | 1016.7 |
| 20260502183531 | 19 | 69 | 6.4 | 11.3 | 0.00 | 0.00 | 0.00 | 52 | 1016.8 |
| 20260502183028 | 19 | 67 | 4.8 | 8.0 | 0.00 | 0.00 | 0.00 | 52 | 1016.7 |
| 20260502182526 | 19 | 79 | 6.4 | 11.3 | 0.00 | 0.00 | 0.00 | 52 | 1016.7 |
| 20260502182028 | 19 | 62 | 6.4 | 11.3 | 0.00 | 0.00 | 0.00 | 53 | 1016.6 |
| 20260502181526 | 20 | 82 | 4.8 | 8.0 | 0.00 | 0.00 | 0.00 | 53 | 1016.5 |
| 20260502180520 | 20 | 82 | 4.8 | 8.0 | 0.00 | 0.00 | 0.00 | 54 | 1016.5 |
| 20260502170455 | 23 | 51 | 9.7 | 17.7 | 0.00 | 0.00 | 0.00 | 42 | 1016.5 |
| 20260502163945 | 24 | 47 | 6.4 | 12.9 | 0.00 | 0.00 | 0.00 | 43 | 1016.8 |
| 20260502163441 | 24 | 90 | 3.2 | 14.5 | 0.00 | 0.00 | 0.00 | 42 | 1016.8 |
| 20260502162942 | 24 | 27 | 4.8 | 14.5 | 0.00 | 0.00 | 0.00 | 44 | 1016.8 |
| 20260502162439 | 24 | 47 | 4.8 | 12.9 | 0.00 | 0.00 | 0.00 | 42 | 1016.9 |
| 20260502161936 | 24 | 255 | 4.8 | 12.9 | 0.00 | 0.00 | 0.00 | 41 | 1016.9 |
| 20260502161435 | 24 | 35 | 6.4 | 12.9 | 0.00 | 0.00 | 0.00 | 41 | 1016.9 |
| 20260502160933 | 25 | 32 | 4.8 | 12.9 | 0.00 | 0.00 | 0.00 | 42 | 1017.0 |
| 20260502160434 | 25 | 78 | 6.4 | 12.9 | 0.00 | 0.00 | 0.00 | 40 | 1017.2 |
| 20260502151925 | 25 | 21 | 6.4 | 14.5 | 0.00 | 0.00 | 0.00 | 41 | 1017.4 |
| 20260502151427 | 25 | 61 | 3.2 | 9.7 | 0.00 | 0.00 | 0.00 | 40 | 1017.4 |
| 20260502150414 | 25 | 200 | 4.8 | 11.3 | 0.00 | 0.00 | 0.00 | 39 | 1017.6 |
| 20260502130333 | 25 | 205 | 3.2 | 9.7 | 0.00 | 0.00 | 0.00 | 39 | 1019.5 |
| 20260502122819 | 23 | 186 | 4.8 | 9.7 | 0.00 | 0.00 | 0.00 | 40 | 1019.9 |
| 20260502122319 | 23 | 175 | 3.2 | 12.9 | 0.00 | 0.00 | 0.00 | 41 | 1020.0 |
| 20260502121817 | 24 | 27 | 6.4 | 12.9 | 0.00 | 0.00 | 0.00 | 40 | 1020.1 |
| 20260502121315 | 23 | 51 | 3.2 | 9.7 | 0.00 | 0.00 | 0.00 | 44 | 1020.1 |
| 20260502120810 | 23 | 194 | 3.2 | 16.1 | 0.00 | 0.00 | 0.00 | 43 | 1020.2 |
| 20260502120315 | 23 | 188 | 9.7 | 16.1 | 0.00 | 0.00 | 0.00 | 43 | 1020.3 |
| 20260502114307 | 22 | 157 | 6.4 | 12.9 | 0.00 | 0.00 | 0.00 | 45 | 1020.5 |
| 20260502113804 | 23 | 217 | 6.4 | 12.9 | 0.00 | 0.00 | 0.00 | 44 | 1020.6 |
| 20260502113257 | 22 | 262 | 3.2 | 6.4 | 0.00 | 0.00 | 0.00 | 47 | 1020.6 |
| 20260502112249 | 22 | 191 | 8.0 | 12.9 | 0.00 | 0.00 | 0.00 | 46 | 1020.8 |
| 20260502111746 | 23 | 173 | 6.4 | 9.7 | 0.00 | 0.00 | 0.00 | 48 | 1020.8 |
| 20260502111244 | 22 | 174 | 1.6 | 9.7 | 0.00 | 0.00 | 0.00 | 50 | 1020.9 |
| 20260502110735 | 21 | 195 | 3.2 | 9.7 | 0.00 | 0.00 | 0.00 | 53 | 1021.1 |
| 20260502110233 | 21 | 84 | 3.2 | 9.7 | 0.00 | 0.00 | 0.00 | 49 | 1021.2 |
| 20260502105729 | 22 | 218 | 6.4 | 9.7 | 0.00 | 0.00 | 0.00 | 53 | 1021.2 |
| 20260502105228 | 22 | 197 | 4.8 | 9.7 | 0.00 | 0.00 | 0.00 | 51 | 1021.4 |
| 20260502104737 | 22 | 178 | 4.8 | 11.3 | 0.00 | 0.00 | 0.00 | 52 | 1021.5 |
| 20260502104224 | 21 | 209 | 4.8 | 11.3 | 0.00 | 0.00 | 0.00 | 53 | 1021.6 |
| 20260502103724 | 21 | 198 | 3.2 | 9.7 | 0.00 | 0.00 | 0.00 | 48 | 1021.7 |
| 20260502103212 | 21 | 204 | 4.8 | 12.9 | 0.00 | 0.00 | 0.00 | 49 | 1021.8 |
| 20260502102711 | 21 | 167 | 8.0 | 12.9 | 0.00 | 0.00 | 0.00 | 51 | 1021.7 |
| 20260502102208 | 21 | 199 | 8.0 | 9.7 | 0.00 | 0.00 | 0.00 | 51 | 1021.8 |
| 20260502101209 | 21 | 202 | 4.8 | 11.3 | 0.00 | 0.00 | 0.00 | 49 | 1022.0 |
| 20260502100709 | 21 | 177 | 1.6 | 11.3 | 0.00 | 0.00 | 0.00 | 51 | 1022.1 |
| 20260502100203 | 21 | 238 | 3.2 | 11.3 | 0.00 | 0.00 | 0.00 | 50 | 1022.2 |
| 20260502091205 | 19 | 198 | 1.6 | 6.4 | 0.00 | 0.00 | 0.00 | 52 | 1022.8 |
| 20260502090706 | 19 | 216 | 3.2 | 8.0 | 0.00 | 0.00 | 0.00 | 54 | 1022.9 |
| 20260502090202 | 19 | 199 | 3.2 | 8.0 | 0.00 | 0.00 | 0.00 | 54 | 1023.1 |
| 20260502070627 | 16 | 124 | 3.2 | 6.4 | 0.00 | 0.00 | 0.00 | 60 | 1023.2 |
| 20260502065113 | 16 | 88 | 3.2 | 4.8 | 0.00 | 0.00 | 0.00 | 60 | 1023.3 |
| 20260502064111 | 15 | 80 | 1.6 | 3.2 | 0.00 | 0.00 | 0.00 | 60 | 1023.3 |
| 20260502063610 | 15 | 78 | 1.6 | 4.8 | 0.00 | 0.00 | 0.00 | 63 | 1023.3 |
| 20260502063110 | 15 | 78 | 1.6 | 6.4 | 0.00 | 0.00 | 0.00 | 62 | 1023.3 |
| 20260502062554 | 15 | 80 | 3.2 | 6.4 | 0.00 | 0.00 | 0.00 | 62 | 1023.3 |
| 20260502062055 | 15 | 68 | 4.8 | 6.4 | 0.00 | 0.00 | 0.00 | 62 | 1023.2 |
| 20260502061555 | 15 | 96 | 3.2 | 4.8 | 0.00 | 0.00 | 0.00 | 65 | 1023.2 |
| 20260502061045 | 14 | 96 | 0.0 | 3.2 | 0.00 | 0.00 | 0.00 | 65 | 1023.3 |
| 20260502060545 | 14 | 96 | 0.0 | 4.8 | 0.00 | 0.00 | 0.00 | 65 | 1023.1 |
| 20260502060114 | 14 | 96 | 3.2 | 8.0 | 0.00 | 0.00 | 0.00 | 65 | 1023.2 |
| 20260502055530 | 14 | 76 | 3.2 | 9.7 | 0.00 | 0.00 | 0.00 | 65 | 1023.3 |
| 20260502055028 | 13 | 69 | 3.2 | 11.3 | 0.00 | 0.00 | 0.00 | 67 | 1023.3 |
| 20260502054522 | 13 | 96 | 6.4 | 11.3 | 0.00 | 0.00 | 0.00 | 67 | 1023.3 |
| 20260502054024 | 13 | 85 | 6.4 | 12.9 | 0.00 | 0.00 | 0.00 | 67 | 1023.3 |
| 20260502053521 | 13 | 38 | 6.4 | 14.5 | 0.00 | 0.00 | 0.00 | 68 | 1023.3 |
| 20260502053018 | 13 | 73 | 4.8 | 14.5 | 0.00 | 0.00 | 0.00 | 68 | 1023.3 |
| 20260502052529 | 12 | 89 | 4.8 | 11.3 | 0.00 | 0.00 | 0.00 | 70 | 1023.3 |
| 20260502052016 | 12 | 94 | 3.2 | 8.0 | 0.00 | 0.00 | 0.00 | 72 | 1023.2 |
| 20260502051016 | 10 | 82 | 1.6 | 3.2 | 0.00 | 0.00 | 0.00 | 77 | 1023.2 |
| 20260502050516 | 10 | 70 | 1.6 | 6.4 | 0.00 | 0.00 | 0.00 | 79 | 1022.9 |
| 20260502050116 | 9 | 70 | 3.2 | 6.4 | 0.00 | 0.00 | 0.00 | 79 | 1022.9 |
| 20260502045512 | 9 | 65 | 3.2 | 4.8 | 0.00 | 0.00 | 0.00 | 79 | 1022.9 |
| 20260502044950 | 9 | 71 | 3.2 | 4.8 | 0.00 | 0.00 | 0.00 | 78 | 1022.9 |
| 20260502044447 | 9 | 72 | 1.6 | 4.8 | 0.00 | 0.00 | 0.00 | 78 | 1022.9 |
| 20260502042949 | 9 | 71 | 4.8 | 6.4 | 0.00 | 0.00 | 0.00 | 76 | 1022.9 |
| 20260502042437 | 9 | 53 | 3.2 | 4.8 | 0.00 | 0.00 | 0.00 | 76 | 1023.1 |
| 20260502041436 | 10 | 51 | 3.2 | 6.4 | 0.00 | 0.00 | 0.00 | 75 | 1023.1 |
| 20260502040936 | 10 | 59 | 3.2 | 6.4 | 0.00 | 0.00 | 0.00 | 74 | 1022.9 |
| 20260502040432 | 10 | 82 | 1.6 | 4.8 | 0.00 | 0.00 | 0.00 | 74 | 1022.9 |
| 20260502035931 | 10 | 82 | 0.0 | 3.2 | 0.00 | 0.00 | 0.00 | 74 | 1022.9 |
| 20260502035431 | 10 | 82 | 0.0 | 3.2 | 0.00 | 0.00 | 0.00 | 74 | 1022.8 |
| 20260502034930 | 10 | 82 | 1.6 | 3.2 | 0.00 | 0.00 | 0.00 | 74 | 1022.9 |
| 20260502033924 | 10 | 82 | 1.6 | 6.4 | 0.00 | 0.00 | 0.00 | 74 | 1022.6 |
| 20260502033422 | 10 | 82 | 1.6 | 6.4 | 0.00 | 0.00 | 0.00 | 74 | 1022.6 |
| 20260502032921 | 10 | 57 | 3.2 | 8.0 | 0.00 | 0.00 | 0.00 | 74 | 1022.7 |
| 20260502032422 | 10 | 70 | 3.2 | 11.3 | 0.00 | 0.00 | 0.00 | 74 | 1022.7 |
| 20260502031416 | 10 | 80 | 3.2 | 9.7 | 0.00 | 0.00 | 0.00 | 74 | 1022.7 |
| 20260502030914 | 10 | 75 | 6.4 | 11.3 | 0.00 | 0.00 | 0.00 | 75 | 1022.7 |
| 20260502030416 | 10 | 78 | 4.8 | 11.3 | 0.00 | 0.00 | 0.00 | 75 | 1022.9 |
| 20260502025911 | 10 | 62 | 6.4 | 11.3 | 0.00 | 0.00 | 0.00 | 75 | 1022.8 |
| 20260502025410 | 10 | 66 | 6.4 | 11.3 | 0.00 | 0.00 | 0.00 | 75 | 1022.8 |
| 20260502024908 | 10 | 78 | 4.8 | 8.0 | 0.00 | 0.00 | 0.00 | 74 | 1022.7 |
| 20260502024411 | 10 | 74 | 1.6 | 4.8 | 0.00 | 0.00 | 0.00 | 74 | 1022.7 |
| 20260502023907 | 10 | 74 | 3.2 | 4.8 | 0.00 | 0.00 | 0.00 | 74 | 1022.8 |
| 20260502023407 | 10 | 74 | 3.2 | 6.4 | 0.00 | 0.00 | 0.00 | 74 | 1022.9 |
| 20260502022906 | 10 | 71 | 3.2 | 6.4 | 0.00 | 0.00 | 0.00 | 74 | 1022.9 |
| 20260502022407 | 10 | 70 | 1.6 | 6.4 | 0.00 | 0.00 | 0.00 | 74 | 1022.9 |
| 20260502021904 | 10 | 79 | 3.2 | 6.4 | 0.00 | 0.00 | 0.00 | 74 | 1022.9 |